User: anonymous   Login
Location: Deer Lake
(49.1830°N, 57.4330°W)
Time: 05:32:21
(UTC-02:-30)
Language:

Cosmos 1707 - Orbit

View from above orbital plane
View from above orbital plane
View from above satellite
View from above satellite

Ground track
Ground track

The orbit data is extracted from the following two-line orbital elements,

1 16326U 85113A   16237.82192590  .00000758  00000-0  41427-4 0  9993
2 16326  82.5132 139.3768 0009188 241.7653 118.2650 15.12779379672539
Epoch (UTC): 24 August 2016 19:43:34
Eccentricity: 0.0009188
inclination: 82.5132°
perigee height: 521 km
apogee height: 534 km
right ascension of ascending node: 139.3768°
argument of perigee: 241.7653°
revolutions per day: 15.12779379
mean anomaly at epoch: 118.2650°
orbit number at epoch: 67253

The dashed part of the orbit path shows where the satellite is in the earth's shadow,  

DLR